TimeCDT,TemperatureF,Dew PointF,Humidity,Sea Level PressureIn,VisibilityMPH,Wind Direction,Wind SpeedMPH,Gust SpeedMPH,PrecipitationIn,Events,Conditions,WindDirDegrees,DateUTC
12:17 AM,62.6,55.4,77,29.62,7.0,SSW,15.0,26.5,0.01,Rain,Rain,200,2013-10-12 05:17:00
12:37 AM,57.2,55.4,94,29.60,7.0,South,5.8,-,0.04,Rain,Rain,170,2013-10-12 05:37:00
12:56 AM,57.2,55.4,94,29.59,10.0,SSE,15.0,19.6,N/A,Rain,Light Rain,150,2013-10-12 05:56:00
1:17 AM,57.2,55.4,94,29.58,10.0,SSE,12.7,19.6,N/A,,Mostly Cloudy,150,2013-10-12 06:17:00
1:37 AM,57.2,55.4,94,29.59,10.0,South,4.6,-,N/A,,Mostly Cloudy,170,2013-10-12 06:37:00
1:56 AM,57.2,55.4,94,29.59,10.0,SSE,6.9,-,N/A,,Scattered Clouds,160,2013-10-12 06:56:00
2:17 AM,57.2,55.4,94,29.58,10.0,SSE,6.9,-,N/A,,Scattered Clouds,160,2013-10-12 07:17:00
2:37 AM,59.0,55.4,88,29.58,10.0,SSE,9.2,16.1,N/A,,Mostly Cloudy,160,2013-10-12 07:37:00
2:56 AM,59.0,55.4,88,29.58,10.0,SSE,10.4,18.4,N/A,,Scattered Clouds,160,2013-10-12 07:56:00
3:16 AM,59.0,53.6,82,29.58,10.0,South,10.4,24.2,N/A,,Clear,180,2013-10-12 08:16:00
3:36 AM,57.2,53.6,88,29.57,10.0,South,16.1,26.5,N/A,,Scattered Clouds,180,2013-10-12 08:36:00
3:57 AM,57.2,51.8,82,29.59,10.0,SSW,15.0,23.0,N/A,,Mostly Cloudy,200,2013-10-12 08:57:00
4:16 AM,55.4,50.0,82,29.59,10.0,South,15.0,21.9,N/A,,Overcast,190,2013-10-12 09:16:00
4:36 AM,55.4,48.2,77,29.60,10.0,South,10.4,20.7,N/A,,Overcast,180,2013-10-12 09:36:00
4:57 AM,55.4,48.2,77,29.61,10.0,South,13.8,21.9,N/A,,Overcast,180,2013-10-12 09:57:00
5:16 AM,53.6,48.2,82,29.62,10.0,SSW,13.8,18.4,N/A,,Overcast,210,2013-10-12 10:16:00
5:37 AM,51.8,44.6,76,29.63,10.0,SSW,15.0,25.3,N/A,,Mostly Cloudy,210,2013-10-12 10:37:00
5:56 AM,51.8,44.6,76,29.64,10.0,SSW,10.4,20.7,N/A,,Overcast,200,2013-10-12 10:56:00
6:17 AM,50.0,44.6,82,29.65,10.0,South,13.8,21.9,N/A,,Overcast,190,2013-10-12 11:17:00
6:36 AM,50.0,42.8,76,29.65,10.0,South,13.8,19.6,N/A,,Overcast,190,2013-10-12 11:36:00
6:56 AM,50.0,44.6,82,29.66,10.0,SSW,8.1,-,N/A,,Overcast,200,2013-10-12 11:56:00
7:17 AM,50.0,44.6,82,29.66,10.0,South,9.2,-,N/A,,Overcast,180,2013-10-12 12:17:00
7:36 AM,50.0,44.6,82,29.66,10.0,South,9.2,-,N/A,,Overcast,190,2013-10-12 12:36:00
7:56 AM,50.0,42.8,76,29.67,10.0,South,9.2,-,N/A,,Overcast,190,2013-10-12 12:56:00
8:17 AM,50.0,42.8,76,29.68,10.0,South,8.1,-,N/A,,Overcast,170,2013-10-12 13:17:00
8:36 AM,50.0,42.8,76,29.68,10.0,SSW,15.0,20.7,N/A,,Overcast,200,2013-10-12 13:36:00
8:56 AM,50.0,42.8,76,29.69,10.0,South,8.1,19.6,N/A,,Overcast,180,2013-10-12 13:56:00
9:16 AM,50.0,42.8,76,29.69,10.0,SSW,11.5,16.1,N/A,,Overcast,200,2013-10-12 14:16:00
9:37 AM,50.0,42.8,76,29.69,10.0,South,8.1,20.7,N/A,,Overcast,180,2013-10-12 14:37:00
9:56 AM,51.8,42.8,71,29.69,10.0,SSE,12.7,19.6,N/A,,Overcast,160,2013-10-12 14:56:00
10:16 AM,51.8,44.6,76,29.69,10.0,South,9.2,16.1,N/A,,Overcast,190,2013-10-12 15:16:00
10:36 AM,51.8,42.8,71,29.70,10.0,South,10.4,16.1,N/A,,Overcast,170,2013-10-12 15:36:00
10:57 AM,51.8,42.8,71,29.70,10.0,South,12.7,17.3,N/A,,Overcast,180,2013-10-12 15:57:00
11:16 AM,51.8,42.8,71,29.71,10.0,South,11.5,19.6,N/A,,Overcast,190,2013-10-12 16:16:00
11:36 AM,51.8,42.8,71,29.71,10.0,SSW,16.1,23.0,N/A,,Overcast,210,2013-10-12 16:36:00
11:57 AM,51.8,42.8,71,29.72,10.0,South,10.4,21.9,N/A,,Overcast,190,2013-10-12 16:57:00
12:16 PM,51.8,42.8,71,29.72,10.0,SSW,15.0,21.9,N/A,,Overcast,200,2013-10-12 17:16:00
12:36 PM,51.8,42.8,71,29.73,10.0,South,9.2,21.9,N/A,,Overcast,190,2013-10-12 17:36:00
12:57 PM,51.8,44.6,76,29.74,10.0,South,12.7,23.0,N/A,,Overcast,190,2013-10-12 17:57:00
1:16 PM,50.0,44.6,82,29.74,10.0,SSW,12.7,21.9,N/A,,Overcast,200,2013-10-12 18:16:00
1:36 PM,50.0,44.6,82,29.74,10.0,SSW,12.7,20.7,N/A,,Overcast,210,2013-10-12 18:36:00
1:56 PM,50.0,44.6,82,29.75,10.0,South,10.4,19.6,N/A,,Overcast,190,2013-10-12 18:56:00
2:16 PM,50.0,44.6,82,29.76,7.0,SSW,10.4,19.6,N/A,,Overcast,200,2013-10-12 19:16:00
2:37 PM,50.0,44.6,82,29.76,5.0,SSW,11.5,16.1,N/A,,Haze,200,2013-10-12 19:37:00
2:56 PM,50.0,44.6,82,29.76,10.0,South,6.9,16.1,N/A,,Overcast,190,2013-10-12 19:56:00
3:16 PM,50.0,44.6,82,29.77,10.0,South,8.1,-,N/A,,Overcast,190,2013-10-12 20:16:00
3:37 PM,51.8,44.6,76,29.77,10.0,South,10.4,17.3,N/A,,Overcast,190,2013-10-12 20:37:00
3:56 PM,51.8,46.4,82,29.78,10.0,SSW,8.1,-,N/A,,Overcast,200,2013-10-12 20:56:00
4:16 PM,48.2,46.4,93,29.79,1.8,SSW,9.2,-,N/A,,Heavy Drizzle,210,2013-10-12 21:16:00
4:37 PM,48.2,48.2,100,29.80,7.0,SW,6.9,-,0.01,,Overcast,220,2013-10-12 21:37:00
4:56 PM,48.2,48.2,100,29.81,2.5,SW,6.9,-,N/A,Rain,Rain,220,2013-10-12 21:56:00
5:17 PM,48.2,48.2,100,29.83,4.0,WSW,9.2,-,N/A,,Drizzle,240,2013-10-12 22:17:00
5:37 PM,48.2,46.4,93,29.84,2.5,West,9.2,12.7,N/A,,Drizzle,270,2013-10-12 22:37:00
5:56 PM,48.2,46.4,93,29.85,10.0,West,12.7,18.4,N/A,,Overcast,270,2013-10-12 22:56:00
6:17 PM,48.2,46.4,93,29.86,7.0,West,13.8,-,N/A,,Overcast,280,2013-10-12 23:17:00
6:36 PM,46.4,44.6,93,29.87,7.0,West,11.5,-,N/A,,Overcast,280,2013-10-12 23:36:00
6:57 PM,46.4,44.6,93,29.88,10.0,West,10.4,-,N/A,,Overcast,270,2013-10-12 23:57:00
7:17 PM,46.4,44.6,93,29.90,10.0,West,9.2,-,N/A,,Overcast,260,2013-10-13 00:17:00
7:36 PM,46.4,44.6,93,29.91,10.0,West,12.7,18.4,N/A,,Drizzle,270,2013-10-13 00:36:00
7:56 PM,46.4,44.6,93,29.92,5.0,West,12.7,17.3,N/A,Rain,Light Rain,270,2013-10-13 00:56:00
8:17 PM,46.4,44.6,93,29.93,7.0,West,12.7,-,N/A,Rain,Rain,270,2013-10-13 01:17:00
8:36 PM,46.4,44.6,93,29.94,10.0,West,13.8,18.4,N/A,Rain,Light Rain,270,2013-10-13 01:36:00
8:55 PM,44.6,42.8,93,29.96,7.0,West,12.7,19.6,N/A,,Overcast,270,2013-10-13 01:55:00
9:15 PM,44.6,42.8,93,29.97,10.0,West,11.5,17.3,N/A,Rain,Light Rain,270,2013-10-13 02:15:00
9:35 PM,44.6,42.8,93,29.98,7.0,West,11.5,18.4,N/A,,Drizzle,280,2013-10-13 02:35:00
9:57 PM,44.6,42.8,93,29.99,7.0,West,11.5,18.4,N/A,,Light Drizzle,280,2013-10-13 02:57:00
10:17 PM,44.6,42.8,93,30.00,10.0,West,10.4,16.1,N/A,,Overcast,280,2013-10-13 03:17:00
10:35 PM,44.6,42.8,93,30.02,10.0,West,12.7,17.3,N/A,,Overcast,270,2013-10-13 03:35:00
10:52 PM,44.6,42.8,93,30.02,10.0,West,10.4,-,N/A,,Overcast,270,2013-10-13 03:52:00
11:17 PM,44.6,42.8,93,30.04,10.0,West,12.7,19.6,N/A,,Overcast,270,2013-10-13 04:17:00
11:36 PM,44.6,42.8,93,30.05,10.0,West,12.7,18.4,N/A,,Overcast,280,2013-10-13 04:36:00
11:51 PM,44.6,42.8,93,30.05,10.0,West,9.2,-,N/A,,Overcast,280,2013-10-13 04:51:00